TimeCST,TemperatureF,Dew PointF,Humidity,Sea Level PressureIn,VisibilityMPH,Wind Direction,Wind SpeedMPH,Gust SpeedMPH,PrecipitationIn,Events,Conditions,WindDirDegrees,DateUTC
12:53 AM,37.9,25.0,60,30.16,10.0,NW,6.9,-,N/A,,Overcast,310,2013-02-15 06:53:00
1:53 AM,37.0,26.1,65,30.17,10.0,NW,11.5,-,N/A,,Overcast,320,2013-02-15 07:53:00
2:53 AM,36.0,28.0,73,30.20,10.0,North,15.0,-,N/A,,Overcast,350,2013-02-15 08:53:00
3:53 AM,34.0,25.0,70,30.22,10.0,NNW,16.1,-,N/A,,Overcast,340,2013-02-15 09:53:00
4:53 AM,32.0,19.9,61,30.25,10.0,NNW,15.0,-,N/A,,Mostly Cloudy,340,2013-02-15 10:53:00
5:53 AM,30.0,19.0,64,30.28,10.0,NNW,19.6,24.2,N/A,,Overcast,330,2013-02-15 11:53:00
6:53 AM,28.0,18.0,66,30.31,10.0,NW,15.0,-,N/A,,Scattered Clouds,320,2013-02-15 12:53:00
7:53 AM,27.0,17.1,66,30.35,10.0,NNW,13.8,-,N/A,,Clear,340,2013-02-15 13:53:00
8:53 AM,28.0,14.0,56,30.37,10.0,NNW,15.0,-,N/A,,Clear,330,2013-02-15 14:53:00
9:53 AM,30.0,15.1,54,30.38,10.0,NW,10.4,-,N/A,,Clear,320,2013-02-15 15:53:00
10:53 AM,32.0,14.0,48,30.37,10.0,NNW,11.5,-,N/A,,Clear,330,2013-02-15 16:53:00
11:53 AM,34.0,15.1,46,30.36,10.0,NW,10.4,-,N/A,,Clear,310,2013-02-15 17:53:00
12:53 PM,35.1,12.9,40,30.33,10.0,WNW,10.4,19.6,N/A,,Clear,300,2013-02-15 18:53:00
1:53 PM,37.9,12.9,36,30.31,10.0,NW,13.8,19.6,N/A,,Clear,310,2013-02-15 19:53:00
2:53 PM,37.9,12.9,36,30.30,10.0,NW,12.7,21.9,N/A,,Clear,310,2013-02-15 20:53:00
3:53 PM,37.0,12.0,36,30.30,10.0,West,13.8,20.7,N/A,,Clear,280,2013-02-15 21:53:00
4:53 PM,36.0,14.0,41,30.31,10.0,NW,13.8,-,N/A,,Clear,320,2013-02-15 22:53:00
5:53 PM,32.0,17.1,54,30.32,10.0,NW,12.7,-,N/A,,Clear,320,2013-02-15 23:53:00
6:53 PM,30.0,16.0,56,30.33,10.0,NW,6.9,-,N/A,,Clear,310,2013-02-16 00:53:00
7:53 PM,28.0,17.1,63,30.33,10.0,NNW,5.8,-,N/A,,Clear,340,2013-02-16 01:53:00
8:53 PM,27.0,17.1,66,30.34,10.0,North,5.8,-,N/A,,Clear,350,2013-02-16 02:53:00
9:53 PM,26.1,16.0,66,30.33,10.0,North,4.6,-,N/A,,Clear,360,2013-02-16 03:53:00
10:53 PM,26.1,17.1,69,30.32,10.0,North,4.6,-,N/A,,Mostly Cloudy,360,2013-02-16 04:53:00
11:53 PM,25.0,17.1,72,30.32,10.0,NW,3.5,-,N/A,,Overcast,320,2013-02-16 05:53:00